SCP
1 1 2 2 2 2 2 2 2 1 2 1 1 1 1 1 1 1 1 1 1 1 1 1 1 1 1 1 1 1 1 1 1 1 1 1 1 1 1 1 1 1 1
1 1 2 2 2 2 2 2 2 1 1 1 1 1 1 1 1 2 2 1 1 1 2 2 1 1 1 1 1 1 1 1 1 1 1 1 1 1 1 0 1 1 1
2 2 1 2 2 2 2 2 2 1 1 1 1 1 1 1 2 2 2 2 1 1 2 2 2 2 1 1 1 1 1 1 1 1 1 1 1 1 1 1 1 1 0
3 2 2 2 2 2 2 2 2 2 2 1 1 1 1 2 2 2 2 2 2 2 2 2 2 2 2 1 1 1 1 1 1 1 1 1 1 1 1 1 1 1 1
3 3 2 2 1 1 1 2 2 2 2 2 2 1 1 1 2 2 2 2 2 2 2 2 2 2 2 1 1 1 1 1 1 1 1 1 1 1 1 1 1 1 1
3 3 2 2 2 1 1 1 1 2 2 2 2 1 1 1 2 2 2 2 2 2 2 2 2 2 2 1 1 1 1 1 1 1 1 1 1 1 1 1 1 1 1
3 2 2 2 2 2 1 1 1 1 1 1 1 1 1 1 1 2 2 2 2 2 2 2 3 3 2 2 1 1 1 2 2 2 2 2 1 1 1 1 1 1 1
2 2 2 2 2 2 2 2 1 1 1 2 2 1 1 1 1 2 2 2 2 2 2 3 3 3 3 2 2 2 2 2 2 2 2 2 1 1 1 1 1 1 1
2 2 2 2 2 2 2 2 2 2 1 2 2 2 2 2 2 2 2 2 2 2 2 2 3 3 3 3 3 2 2 2 2 2 2 2 1 1 1 1 1 1 1
2 2 2 2 2 2 2 2 2 2 2 2 2 2 2 2 2 2 2 2 2 2 2 2 2 2 2 3 3 3 2 2 2 2 2 2 1 1 1 1 1 1 1
2 2 2 2 2 2 2 2 3 2 2 2 2 2 2 2 2 1 2 2 2 2 2 2 2 2 2 3 3 3 3 2 2 1 1 1 1 1 1 1 1 1 1
2 3 2 2 2 2 2 3 3 3 2 2 2 2 2 2 2 1 1 2 2 2 2 2 2 2 2 2 3 4 3 2 2 1 1 1 1 1 1 1 1 1 1
4 4 3 3 2 2 2 3 3 3 2 2 2 2 2 2 2 1 1 2 2 2 2 2 2 2 2 2 3 4 4 2 1 1 1 1 1 1 1 1 1 1 1
5 4 4 4 4 3 3 3 3 3 2 2 2 2 2 2 2 1 1 1 2 2 2 2 2 2 2 2 3 3 3 2 1 1 1 1 1 1 1 1 1 1 1
5 5 5 5 5 4 3 3 2 3 3 2 2 2 2 2 1 1 1 1 1 2 2 2 2 2 2 2 2 3 3 2 1 1 1 1 1 1 1 1 1 1 1
6 6 6 5 5 5 4 3 3 3 3 3 2 2 3 2 1 1 1 1 1 2 2 2 2 2 2 2 2 3 3 2 2 1 1 1 1 1 1 1 1 1 1
6 6 6 6 6 6 5 4 4 4 4 4 3 3 3 2 2 2 2 2 2 2 2 2 3 3 3 3 3 3 3 3 2 1 1 1 1 1 0 0 0 0 0
7 7 6 6 6 6 6 6 5 5 4 4 4 4 3 3 3 2 2 2 2 2 2 3 3 4 4 4 4 4 3 2 2 1 1 1 1 1 0 0 0 0 0
8 7 7 6 6 7 7 7 7 6 5 5 5 4 3 3 2 2 2 2 2 2 2 2 3 4 4 5 6 5 4 3 2 1 1 1 1 1 0 0 0 0 0
7 7 7 6 6 7 7 8 8 8 7 6 5 4 3 2 2 2 2 2 2 2 2 2 3 3 4 5 6 6 5 4 2 2 1 1 1 1 1 1 0 0 0
7 6 6 6 6 7 7 8 8 8 8 8 7 5 3 2 2 1 1 1 2 2 2 2 3 3 4 5 6 7 6 5 4 3 2 2 1 1 1 1 1 0 0
6 6 6 6 7 7 7 7 7 8 9 9 7 5 4 3 2 1 1 1 1 2 2 3 3 4 4 5 7 8 8 6 5 4 3 2 2 2 2 1 1 0 0
6 6 6 7 8 8 7 5 5 6 8 9 7 5 4 3 3 2 2 1 1 1 2 2 3 4 5 6 8 9 9 7 5 4 3 2 2 2 2 1 1 0 0
6 6 6 7 8 7 5 3 3 4 6 7 7 5 4 3 3 3 2 2 2 1 1 1 2 2 3 5 7 9 10 7 5 3 2 2 2 3 3 2 1 0 0
7 7 8 9 9 6 4 2 2 3 4 5 5 4 4 3 3 3 2 2 2 2 2 1 1 1 1 2 4 7 8 7 4 3 2 2 2 3 3 3 2 0 0
8 9 9 10 9 7 3 1 2 3 3 4 4 4 4 3 3 2 2 2 3 3 3 2 1 1 1 1 2 5 7 5 4 3 2 2 2 2 3 4 2 1 0
Wind_Speed
1 1 0 0 0 0 0 1 1 1 1 1 1 1 1 2 2 3 4 10 10 9 8 8 7 6 6 6 5 5 5 5 6 6 6 6 6 7 7 8 8 8 8
1 0 1 0 1 0 0 0 0 0 0 0 0 1 1 1 2 3 4 6 9 9 8 8 7 7 7 7 6 6 6 6 5 5 5 6 6 7 7 7 7 8 7
1 1 0 1 0 0 0 0 0 0 1 0 1 1 1 1 2 3 4 4 5 8 9 8 8 8 8 8 7 7 7 7 6 6 5 5 6 6 7 7 7 7 8
1 1 1 0 1 1 1 1 1 0 0 0 0 0 0 1 2 2 3 3 3 4 7 10 9 8 8 8 8 8 7 7 7 6 5 6 6 7 7 7 6 6 7
1 1 1 0 1 1 0 1 1 1 0 0 0 1 1 2 2 3 3 3 4 4 4 8 10 9 10 9 8 8 8 7 7 6 6 6 6 6 6 7 7 7 7
1 1 1 1 1 1 0 1 1 0 1 1 2 1 1 2 2 2 3 3 4 5 5 6 6 7 10 9 8 7 7 7 7 7 7 7 7 6 6 7 7 7 7
1 1 1 1 1 1 0 1 0 1 1 1 0 1 2 3 3 2 3 3 3 4 4 5 4 5 5 9 8 7 7 7 8 7 7 7 7 7 7 8 8 7 8
1 2 1 1 1 1 1 1 1 1 1 1 1 1 1 1 1 2 2 2 3 2 3 5 4 5 4 4 6 8 7 7 7 7 8 8 8 8 8 8 8 8 8
1 1 1 1 1 1 1 1 2 2 2 1 1 1 1 1 1 1 1 1 1 2 2 2 4 4 4 4 5 7 8 7 7 7 7 8 7 7 8 8 9 8 9
2 1 1 1 1 1 1 2 1 2 2 2 2 2 2 1 1 1 1 1 1 2 2 2 2 3 3 3 5 8 9 8 7 7 7 7 7 7 8 9 9 9 8
2 1 1 1 1 1 1 2 1 2 1 2 2 2 1 2 2 2 2 1 1 1 1 1 1 1 2 4 4 6 9 9 7 6 6 6 6 7 7 8 8 9 9
1 1 1 1 1 1 2 2 2 2 2 2 2 2 1 1 2 2 2 2 2 2 1 0 0 1 1 2 5 7 9 8 7 7 6 6 5 5 6 7 7 8 8
2 1 1 1 1 1 2 1 1 2 2 2 2 2 2 2 2 1 1 2 2 1 1 0 0 0 0 2 3 6 8 9 8 7 6 5 5 5 5 6 7 7 7
1 2 1 1 1 1 2 1 2 2 1 2 3 2 2 2 2 1 1 1 2 1 1 1 1 1 1 1 3 5 5 8 8 7 6 5 4 4 4 4 4 4 5
1 1 1 1 1 1 1 1 1 2 1 1 2 2 2 2 1 1 1 1 1 2 2 1 0 1 1 1 3 2 2 6 7 6 6 5 4 4 3 3 3 3 4
1 1 1 0 0 0 1 1 1 1 1 1 1 1 1 2 2 2 1 1 1 1 1 1 0 0 1 1 2 1 2 5 6 5 5 5 4 4 3 3 3 3 3
0 1 0 0 1 0 0 1 2 1 1 2 2 1 1 1 2 2 2 1 1 1 1 1 0 0 1 1 0 1 2 2 3 5 6 5 4 4 3 3 3 3 3
1 1 1 1 2 1 1 1 2 2 2 2 2 1 2 2 2 2 2 1 1 1 1 2 1 0 0 1 1 1 1 2 2 3 5 5 5 4 4 3 2 2 3
1 1 1 2 2 1 1 2 2 2 2 2 2 2 2 2 2 2 2 2 1 1 1 1 1 1 1 1 0 1 1 0 2 3 4 5 4 4 4 3 3 2 2
2 2 1 2 2 2 2 2 2 2 3 3 2 2 1 1 1 2 2 1 1 1 1 1 1 1 1 1 1 1 1 0 1 1 2 3 4 4 3 3 3 3 3
2 2 2 3 3 2 2 2 2 3 3 3 2 2 2 1 1 1 2 1 1 1 1 1 1 1 1 1 1 1 1 1 1 1 0 1 2 2 2 2 3 3 3
2 2 2 2 2 2 1 1 2 3 3 3 3 2 2 2 1 2 1 1 1 2 2 1 2 2 2 2 1 2 1 1 1 1 1 1 1 1 2 2 4 4 4
2 2 2 2 1 1 1 1 2 3 3 3 2 2 3 2 2 1 2 2 2 3 3 2 2 3 2 2 2 2 2 2 2 2 1 2 1 1 1 2 6 6 5
2 2 3 2 2 2 2 1 2 4 3 2 2 2 2 2 1 1 2 2 2 3 4 4 3 3 2 1 2 2 2 2 2 1 2 2 2 2 1 2 5 7 7
2 2 2 2 2 2 2 2 2 3 3 3 3 3 3 3 2 2 2 2 2 2 3 3 3 2 2 3 2 1 1 2 2 2 1 1 2 1 2 2 3 7 6
2 2 2 2 2 2 2 2 2 3 3 2 2 2 3 3 3 4 3 3 3 2 2 1 1 2 3 3 3 3 2 2 2 2 2 1 2 1 1 1 2 3 4
Wind_Direction
99 92 104 90 37 65 153 308 328 14 33 360 359 60 75 94 134 129 133 154 159 163 167 171 174 177 181 181 181 185 183 191 201 202 203 204 203 202 205 205 204 205 207
94 86 127 83 35 356 358 210 266 325 56 22 38 38 85 139 137 139 143 159 167 168 170 174 178 180 183 185 187 186 188 190 191 195 198 197 197 197 200 200 202 203 203
139 195 198 143 207 226 294 290 283 253 181 163 143 180 181 160 144 148 151 159 170 179 180 181 182 183 187 189 190 191 197 199 197 201 197 191 192 197 200 201 203 204 202
174 255 228 160 206 198 179 192 226 196 59 29 329 173 165 168 167 164 173 177 176 176 186 191 190 190 190 193 196 195 198 198 195 199 199 198 197 197 197 199 200 202 203
193 258 289 330 271 274 257 268 97 112 111 338 260 206 201 196 191 186 188 187 186 177 176 184 192 195 194 196 200 197 198 196 194 197 201 203 201 202 200 202 202 204 206
212 253 243 302 308 312 352 22 18 333 243 245 268 274 229 212 203 200 205 202 194 189 186 180 186 197 198 195 196 197 199 197 195 196 204 206 207 206 204 204 206 210 208
226 256 307 288 290 302 276 261 211 279 262 236 267 290 257 223 205 207 212 207 203 200 186 182 182 179 188 195 197 195 196 195 195 196 202 207 209 209 208 209 208 209 210
238 224 220 279 252 252 267 289 292 272 259 227 209 234 294 281 262 227 194 211 215 207 189 186 186 178 173 166 184 192 192 192 196 200 205 209 211 211 210 211 211 212 214
217 276 239 276 277 242 222 254 267 255 265 264 222 187 218 244 305 289 241 219 226 228 220 191 184 173 170 161 167 181 185 189 195 202 206 209 210 210 211 213 214 215 216
207 203 225 245 280 295 270 257 246 283 272 273 267 221 203 196 219 274 288 245 242 242 245 249 201 174 166 168 164 168 179 186 193 201 206 207 209 209 215 217 216 218 216
201 196 188 221 247 267 265 287 313 288 295 290 288 281 252 225 221 213 245 260 271 252 253 266 231 144 179 175 160 169 175 180 187 196 203 205 205 207 214 218 217 219 218
203 201 183 209 245 263 266 269 276 274 269 277 284 292 288 278 248 224 224 237 236 239 232 322 346 147 201 161 164 165 170 174 183 195 198 199 202 208 213 216 214 216 218
188 182 186 192 253 272 273 272 264 271 267 275 276 277 279 278 282 263 238 256 259 241 195 223 185 142 181 126 148 164 173 172 180 185 189 194 200 207 212 215 217 219 221
136 142 168 177 222 253 265 265 265 254 263 275 275 273 274 274 277 246 234 242 271 272 223 195 161 132 86 95 127 154 158 163 167 173 175 178 182 186 191 201 210 211 219
122 123 137 153 226 262 291 303 299 305 328 294 285 284 282 277 269 263 241 224 225 256 260 233 177 107 85 81 136 147 143 158 166 174 175 176 180 186 187 187 197 210 219
50 96 128 164 216 271 327 312 314 333 347 320 302 316 314 311 312 284 272 255 236 227 267 283 225 121 78 81 132 138 135 154 168 173 174 173 176 185 192 193 196 209 222
187 184 194 267 265 242 255 280 291 288 292 294 295 310 309 317 311 307 314 294 262 212 220 257 274 357 100 99 120 165 173 164 166 184 180 176 177 185 195 199 202 213 223
222 205 209 230 260 245 232 250 265 274 267 275 289 297 296 299 307 309 313 304 276 228 197 230 235 238 205 170 211 234 216 187 163 163 170 171 174 177 182 187 199 213 220
238 230 224 238 248 257 250 260 261 272 270 266 262 266 280 292 296 309 295 293 275 251 201 205 233 225 244 203 204 281 273 195 191 164 166 172 178 181 182 184 184 187 202
247 244 236 255 247 248 262 269 271 260 263 267 260 249 261 262 278 287 271 276 273 265 243 226 226 229 219 212 187 224 256 235 256 205 168 164 179 181 175 175 170 168 172
243 241 236 245 246 235 251 257 268 259 257 261 259 244 242 214 218 257 273 267 249 235 243 242 241 233 226 213 231 239 236 216 259 238 179 210 181 180 184 188 177 173 170
235 242 240 239 251 263 302 284 267 276 260 252 253 254 245 201 202 219 252 281 262 233 235 236 253 239 239 235 244 244 238 219 242 224 203 259 197 197 190 186 181 173 171
228 244 251 242 235 255 273 306 295 271 256 250 248 249 262 243 180 209 226 245 259 260 238 235 238 246 248 241 232 239 232 240 243 227 208 255 239 224 214 176 165 172 174
233 243 254 241 227 247 243 251 288 260 257 247 235 233 234 251 225 229 231 232 242 248 232 221 231 252 254 237 235 238 224 222 242 235 198 231 234 235 232 169 177 177 179
236 235 244 234 226 231 249 256 263 262 251 246 237 224 212 210 220 210 211 227 254 266 255 227 213 229 237 232 227 220 232 223 246 234 196 211 228 240 239 216 193 187 186
230 232 237 240 233 218 227 239 244 255 263 256 239 213 198 198 201 205 213 220 239 260 282 276 218 221 220 219 218 206 214 227 247 245 196 201 221 222 254 221 174 181 197